Location: Ethel Rock
(53.4667°N, 4.5667°W)
Time: 05:28:20
(UTC+00:00)

ADEOS II - Pass Details

Date: 24 October 2020
Orbit: 800 x 800 km, 98.5° (Epoch: 25 November)

Event Time Altitude Azimuth Distance (km) Brightness Sun altitude
Rises 02:38:05 0° 16° (NNE) 3,325 5.9 -38.2°
Reaches altitude 10° 02:40:27 10° 19° (NNE) 2,390 5.1 -37.9°
Enters shadow 02:42:32 24° 25° (NNE) 1,608 4.0 -37.7°
